Simultaneous Nadir Overpasses (SNOs) Predictions

Prediction of SNOs between NOAA-20 and METOP-C Satellite Orbit:

Table of predicted SNOs for the next 14.0 days since TLE Epoch: 4/27/2024
Index Date (NOAA-20) Time (NOAA-20) Lat,Lon (NOAA-20) SZA (NOAA-20 ) Date (METOP-C) Time (METOP-C) Lat,Lon (METOP-C) SZA (METOP-C ) Distance(km) Time Diff (sec)
1 05/06/2024 21:54:42 73.54,-158.41 56.80 05/06/2024 21:55:48 73.45,-155.61 56.59 89.03 66
2 05/06/2024 22:45:23 -73.36, 9.29 123.40 05/06/2024 22:46:32 -73.31, 11.41 123.55 67.65 69
3 05/06/2024 23:36:05 73.20, 176.98 56.41 05/06/2024 23:37:15 73.18, 178.45 56.32 47.24 70
4 05/07/2024 00:26:47 -73.07, -15.44 123.74 05/07/2024 00:27:59 -73.04, -14.53 123.82 29.91 72
5 05/07/2024 01:17:29 72.90, 152.23 56.07 05/07/2024 01:18:43 72.86, 152.41 56.00 7.81 74
6 05/07/2024 02:08:12 -72.83, -40.31 124.02 05/07/2024 02:09:25 -72.82, -40.34 124.05 1.94 73
7 05/07/2024 02:58:57 72.81, 127.05 55.95 05/07/2024 03:00:05 72.84, 127.03 55.96 2.53 68
8 05/07/2024 03:49:42 -72.85, -65.71 124.03 05/07/2024 03:50:46 -72.85, -65.62 124.04 2.87 64
9 05/07/2024 04:40:27 72.83, 101.65 55.95 05/07/2024 04:41:27 72.81, 101.64 55.93 1.22 60
10 05/07/2024 05:31:11 -72.81, -91.00 124.09 05/07/2024 05:32:08 -72.83, -91.00 124.08 2.40 57
11 05/07/2024 06:21:56 72.79, 76.36 55.89 05/07/2024 06:22:49 72.79, 76.26 55.89 3.32 53
12 05/07/2024 07:12:41 -72.82,-116.40 124.09 05/07/2024 07:13:30 -72.81,-116.39 124.12 1.27 49
13 05/07/2024 08:03:26 72.80, 50.96 55.88 05/07/2024 08:04:10 72.82, 50.98 55.89 2.88 44
14 05/07/2024 08:54:10 -72.78,-141.69 124.16 05/07/2024 08:54:52 -72.79,-141.77 124.15 2.80 42
15 05/07/2024 09:44:56 72.81, 25.56 55.87 05/07/2024 09:45:32 72.80, 25.60 55.86 1.47 36
16 05/07/2024 10:35:40 -72.79,-167.09 124.16 05/07/2024 10:36:13 -72.82,-167.05 124.15 3.02 33
17 05/07/2024 11:26:25 72.77, 0.27 55.81 05/07/2024 11:26:54 72.78, 0.21 55.82 2.14 29
18 05/07/2024 12:17:10 -72.80, 167.52 124.17 05/07/2024 12:17:35 -72.79, 167.57 124.18 1.92 25
19 05/07/2024 13:07:55 72.78, -25.13 55.80 05/07/2024 13:08:16 72.76, -25.17 55.78 2.89 21
20 05/07/2024 13:58:39 -72.76, 142.22 124.23 05/07/2024 13:58:57 -72.77, 142.18 124.22 1.70 18
21 05/07/2024 14:49:25 72.79, -50.53 55.80 05/07/2024 14:49:37 72.79, -50.45 55.79 2.64 12
22 05/07/2024 15:40:09 -72.77, 116.83 124.24 05/07/2024 15:40:19 -72.75, 116.80 124.26 2.67 10
23 05/07/2024 16:30:54 72.75, -75.82 55.73 05/07/2024 16:30:59 72.77, -75.84 55.75 1.47 5
24 05/07/2024 17:21:39 -72.79, 91.43 124.25 05/07/2024 17:21:40 -72.78, 91.52 124.25 3.15 1
25 05/07/2024 18:12:24 72.77,-101.22 55.73 05/07/2024 18:12:21 72.75,-101.22 55.71 2.26 3
26 05/07/2024 19:03:08 -72.75, 66.13 124.31 05/07/2024 19:03:02 -72.76, 66.14 124.29 1.42 6
27 05/07/2024 19:53:53 72.73,-126.51 55.67 05/07/2024 19:53:43 72.72,-126.60 55.67 2.98 10
28 05/07/2024 20:44:38 -72.76, 40.74 124.31 05/07/2024 20:44:24 -72.74, 40.75 124.33 2.31 14
29 05/07/2024 21:35:23 72.74,-151.91 55.66 05/07/2024 21:35:04 72.75,-151.88 55.68 1.94 19
30 05/07/2024 22:26:07 -72.72, 15.44 124.37 05/07/2024 22:25:46 -72.72, 15.37 124.37 2.42 21
31 05/07/2024 23:16:53 72.75,-177.31 55.65 05/07/2024 23:16:26 72.73,-177.27 55.64 2.47 27
32 05/08/2024 00:07:37 -72.73, -9.96 124.38 05/08/2024 00:07:07 -72.75, -9.91 124.36 2.28 30
33 05/08/2024 00:58:22 72.71, 157.40 55.59 05/08/2024 00:57:48 72.71, 157.35 55.60 1.56 34
34 05/08/2024 01:49:07 -72.74, -35.35 124.39 05/08/2024 01:48:29 -72.72, -35.29 124.40 2.80 38
35 05/08/2024 02:39:52 72.72, 132.00 55.59 05/08/2024 02:39:09 72.74, 132.07 55.61 3.06 43
36 05/08/2024 03:30:36 -72.70, -60.65 124.45 05/08/2024 03:29:51 -72.70, -60.68 124.44 0.99 45
37 05/08/2024 04:21:22 72.73, 106.60 55.58 05/08/2024 04:20:31 72.72, 106.69 55.57 3.36 51
38 05/08/2024 05:12:06 -72.71, -86.04 124.46 05/08/2024 05:11:12 -72.73, -85.96 124.43 3.53 54
39 05/08/2024 06:02:51 72.70, 81.31 55.52 05/08/2024 06:01:53 72.70, 81.30 55.53 0.22 58
40 05/08/2024 06:53:36 -72.73,-111.44 124.46 05/08/2024 06:52:34 -72.71,-111.34 124.47 3.81 62
41 05/08/2024 07:44:21 72.71, 55.91 55.51 05/08/2024 07:43:15 72.68, 55.92 55.49 3.55 66
42 05/08/2024 08:35:05 -72.69,-136.74 124.52 05/08/2024 08:33:56 -72.69,-136.72 124.51 0.49 69
43 05/08/2024 09:25:50 72.67, 30.61 55.45 05/08/2024 09:24:37 72.65, 30.53 55.45 3.10 73
44 05/08/2024 10:16:33 -72.60,-161.93 124.64 05/08/2024 10:15:19 -72.62,-162.21 124.59 9.68 74
45 05/08/2024 11:07:15 72.42, 5.73 55.17 05/08/2024 11:06:03 72.43, 4.74 55.23 33.33 72
46 05/08/2024 11:57:57 -72.30, 173.28 124.97 05/08/2024 11:56:46 -72.34, 171.90 124.86 47.04 71
47 05/08/2024 12:48:39 72.13, -19.07 54.84 05/08/2024 12:47:31 72.10, -21.24 54.92 74.47 68
48 05/08/2024 13:39:21 -72.01, 148.48 125.31 05/08/2024 13:38:14 -72.01, 145.92 125.17 87.76 67



Historial Predications of SNOs between NOAA-20 and METOP-C
